Regional Weather Roundup
Issued by NWS

Home | Current Version | Previous Version | Text Only | Print | Product List | Glossary On
Versions: 1 2 3 4 5 6 7 8 9 10 11 12 13 14 15 16 17 18 19 20 21 22 23 24 25 26 27 28 29 30 31 32 33 34 35 36 37 38 39 40 41 42 43 44 45 46 47 48 49 50
000
ASUS44 KBMX 010710
RWRAL

ALABAMA REGIONAL WEATHER ROUNDUP
NATIONAL WEATHER SERVICE BIRMINGHAM AL
200 AM CDT SUN MAY 01 2016

NOTE: "FAIR" INDICATES FEW OR NO CLOUDS BELOW 12,000 FEET
WITH NO SIGNIFICANT WEATHER AND/OR OBSTRUCTIONS TO VISIBILITY.

THE REMARK "TC" DENOTES TEMPERATURE IN DEGREES CELSIUS.

ALZ001>011-014-016>018-020-010800-
NORTH ALABAMA

CITY           SKY/WX    TMP DP  RH WIND       PRES   REMARKS
MUSCLE SHOALS  NOT AVBL
HUNTSVILLE     CLEAR     67  64  90 S5        29.92F
DECATUR        CLEAR     66  66 100 S5        29.93S
HALEYVILLE     CLOUDY    67  63  87 S6        29.96S
GADSDEN        FOG       64  64 100 CALM      29.95S VSB 1
$$

ALZ012-013-022-023-030>036-040>044-010800-
WEST CENTRAL ALABAMA

CITY           SKY/WX    TMP DP  RH WIND       PRES   REMARKS
TUSCALOOSA     CLEAR     63  63 100 CALM      29.93S
$$

ALZ015-024>027-033>036-040>044-010800-
CENTRAL ALABAMA

CITY           SKY/WX    TMP DP  RH WIND       PRES   REMARKS
BIRMINGHAM     PTCLDY    69  66  90 CALM      29.96S
MONTGOMERY     CLOUDY    74  67  78 CALM      29.94R
SHELBY CO ARPT CLEAR     67  65  93 W5        29.94S
MAXWELL AFB    MOCLDY    70  68  93 CALM      29.93S
GREENVILLE     CLOUDY    73  69  87 CALM      29.93R
$$

ALZ019-021-028-029-037-038-045>048-010800-
EAST CENTRAL ALABAMA

CITY           SKY/WX    TMP DP  RH WIND       PRES   REMARKS
ANNISTON       PTCLDY    67  64  90 CALM      29.95F
ALEXANDER CITY CLOUDY    67  67 100 CALM      29.96S
AUBURN         CLOUDY    71  65  81 SW6       29.97R
$$

ALZ051>064-010800-
SOUTHWEST ALABAMA

CITY           SKY/WX    TMP DP  RH WIND       PRES   REMARKS
MOBILE         MOCLDY    68  68 100 S3        29.91F
BROOKLEY FIELD CLOUDY    74  72  93 S6        29.91F
EVERGREEN      CLOUDY    69  66  90 CALM      29.93R
$$

ALZ049-050-065>069-010800-
SOUTHEAST ALABAMA

CITY           SKY/WX    TMP DP  RH WIND       PRES   REMARKS
DOTHAN         CLOUDY    73  68  84 CALM      29.96F
OZARK          MOCLDY    73  72  94 SW5       29.93R
TROY           MOCLDY    74  69  85 CALM      29.95R
EUFAULA        FAIR      71  67  87 CALM      29.94R
$$



USA.gov is the U.S. government's official web portal to all federal, state and local government web resources and services.